Flag for Cyprus Weather past 2 weeks in Famagusta, Cyprus

Now
79 °F

Clear.


Feels Like: 82 °F
Forecast: 77 / 94 °F
Wind: 2 mph from Southwest

Location: Larnaca Airport

Current Time: Aug 30, 2014 at 5:51:56 AM

Latest Report: Aug 30, 2014 at 5:00 AM


Visibility: 10 mi

Pressure: 29.77 "Hg

Humidity: 84%

Dew point: 73 °F

Location of FamagustaLocation

Historic Weather in Famagusta — Graph

°F

Famagusta temperature yesterday

Maximum temperature yesterday: 90 °F (at 1:30 PM)
Minimum temperature yesterday: 75 °F (at 5:30 AM)
Average temperature yesterday: 83 °F

Past Weeks' High & Low Weather Summary

 TemperatureHumidityPressure
High99 °F (Aug 24, 2:00 PM)100% (Aug 16, 12:30 AM)29.89 "Hg (Aug 16, 12:30 AM)
Low72 °F (Aug 26, 6:00 AM)24% (Aug 24, 4:00 PM)29.53 "Hg (Aug 17, 7:00 PM)
Average83 °F72%29.73 "Hg
* Reported Aug 15 4:00 AM — Aug 30 4:30 AM, Famagusta, Weather by CustomWeather, © 2014

Note: Actual official high and low records may vary slightly from our data, if they occured in-between our weather recording intervals... More about our weather records

Advertising

Famagusta weather history for previous 24 hours

 ConditionsComfort  
Time TempWeatherWind HumidityBarometerVisibility
4:30 AM
Aug 30
77 °FClear.No wind89%29.77 "Hg10 mi
4:00 AM79 °FClear.1 mph84%29.77 "Hg10 mi
3:30 AM79 °FClear.2 mph84%29.77 "Hg10 mi
3:00 AM79 °FClear.No wind84%29.77 "Hg10 mi
2:30 AM79 °FClear.1 mph84%29.77 "Hg10 mi
2:00 AM79 °FClear.5 mph84%29.74 "Hg10 mi
1:30 AM79 °FPassing clouds.3 mph84%29.77 "HgN/A
1:00 AM79 °FClear.1 mph89%29.77 "Hg10 mi
12:30 AM79 °FClear.2 mph89%29.77 "Hg10 mi
12:00 AM81 °FClear.1 mph84%29.77 "Hg10 mi
10:00 PM
Aug 29
82 °FPassing clouds.5 mph79%29.77 "HgN/A
9:30 PM82 °FClear.7 mph79%29.74 "Hg10 mi
9:00 PM82 °FClear.8 mph79%29.74 "Hg10 mi
8:30 PM82 °FClear.10 mph79%29.74 "Hg10 mi
8:00 PM82 °FSunny.12 mph84%29.74 "Hg10 mi
7:30 PM84 °FPassing clouds.12 mph79%29.74 "HgN/A
7:00 PM84 °FPassing clouds.15 mph74%29.74 "HgN/A
6:30 PM86 °FPassing clouds.15 mph70%29.74 "HgN/A
6:00 PM86 °FPassing clouds.15 mph70%29.74 "HgN/A
5:30 PM88 °FSunny.16 mph62%29.74 "Hg10 mi
5:00 PM88 °FSunny.17 mph59%29.71 "Hg10 mi
4:30 PM88 °FSunny.16 mph62%29.71 "Hg10 mi
4:00 PM90 °FPassing clouds.16 mph59%29.71 "HgN/A
3:30 PM90 °FPassing clouds.16 mph59%29.74 "HgN/A
3:00 PM90 °FPassing clouds.16 mph59%29.74 "HgN/A
2:30 PM90 °FPassing clouds.16 mph59%29.74 "HgN/A
2:00 PM90 °FPassing clouds.14 mph59%29.74 "HgN/A
1:30 PM90 °FPassing clouds.14 mph59%29.74 "HgN/A
1:00 PM88 °FPassing clouds.14 mph62%29.74 "HgN/A
12:30 PM88 °FPassing clouds.13 mph62%29.74 "HgN/A
12:00 PM88 °FPassing clouds.12 mph62%29.77 "HgN/A
11:30 AM88 °FPassing clouds.12 mph62%29.77 "HgN/A
11:00 AM86 °FPassing clouds.10 mph66%29.77 "HgN/A
10:30 AM88 °FPassing clouds.10 mph66%29.77 "Hg5 mi
10:00 AM86 °FPassing clouds.8 mph66%29.77 "Hg5 mi
9:30 AM86 °FPassing clouds.7 mph66%29.77 "Hg4 mi
9:00 AM84 °FPassing clouds.5 mph70%29.74 "Hg4 mi
8:30 AM84 °FClear.2 mph70%29.74 "Hg4 mi
8:00 AM82 °FClear.2 mph74%29.74 "Hg4 mi
7:30 AM79 °FClear.2 mph84%29.74 "Hg4 mi
7:00 AM77 °FClear.3 mph89%29.74 "Hg4 mi
6:30 AM75 °FPassing clouds.3 mph89%29.74 "Hg4 mi
6:00 AM77 °FPassing clouds.2 mph83%29.71 "Hg4 mi
5:30 AM75 °FClear.1 mph89%29.71 "Hg6 mi
5:00 AM77 °FClear.2 mph89%29.71 "Hg4 mi
Weather by CustomWeather, © 2014

See weather overviewHow to use our weather pages